EN

Hourly Weather Kyzyrbak

Today, 30 July, Friday

Time Temperature Precipitation Wind Pressure Humidity
00:00 +14°C° 0 mm 2 mps 733 mmHg 61%
01:00 +14°C° 0 mm 2 mps 733 mmHg 61%
02:00 +13°C° 0 mm 3 mps 733 mmHg 60%
03:00 +14°C° 0 mm 4 mps 733 mmHg 58%
04:00 +15°C° 0 mm 5 mps 733 mmHg 57%
05:00 +15°C° 0.1 mm 4 mps 733 mmHg 65%
06:00 +14°C° 0.1 mm 3 mps 733 mmHg 73%
07:00 +14°C° 0.1 mm 3 mps 732 mmHg 81%
08:00 +17°C° 0 mm 4 mps 732 mmHg 76%
09:00 +19°C° 0 mm 4 mps 731 mmHg 71%
10:00 +20°C° 0 mm 5 mps 731 mmHg 69%
11:00 +20°C° 0.3 mm 5 mps 731 mmHg 70%
12:00 +20°C° 0.3 mm 5 mps 730 mmHg 71%
13:00 +20°C° 0.3 mm 5 mps 730 mmHg 73%
14:00 +21°C° 0.3 mm 5 mps 730 mmHg 75%
15:00 +22°C° 0.3 mm 5 mps 730 mmHg 77%
16:00 +22°C° 0 mm 5 mps 730 mmHg 76%
17:00 +22°C° 0.5 mm 4 mps 730 mmHg 79%
18:00 +21°C° 0.5 mm 4 mps 730 mmHg 83%
19:00 +21°C° 0.5 mm 4 mps 730 mmHg 86%
20:00 +20°C° 0.2 mm 3 mps 731 mmHg 88%
21:00 +19°C° 0.2 mm 3 mps 731 mmHg 90%
22:00 +18°C° 0.2 mm 2 mps 731 mmHg 91%
23:00 +18°C° 0 mm 2 mps 731 mmHg 92%

Tomorrow, 31 July, Saturday

Time Temperature Precipitation Wind Pressure Humidity
00:00 +17°C° 0 mm 2 mps 732 mmHg 93%
01:00 +17°C° 0 mm 2 mps 732 mmHg 93%
02:00 +17°C° 0 mm 2 mps 732 mmHg 93%
03:00 +16°C° 0 mm 2 mps 732 mmHg 94%
04:00 +16°C° 0 mm 2 mps 732 mmHg 94%
05:00 +17°C° 0 mm 2 mps 733 mmHg 92%
06:00 +18°C° 0 mm 2 mps 733 mmHg 90%
07:00 +19°C° 0 mm 2 mps 733 mmHg 89%
08:00 +21°C° 0 mm 2 mps 733 mmHg 80%
09:00 +24°C° 0 mm 3 mps 733 mmHg 71%
10:00 +26°C° 0 mm 3 mps 733 mmHg 61%
11:00 +27°C° 0 mm 3 mps 733 mmHg 59%
12:00 +27°C° 0 mm 3 mps 733 mmHg 56%
13:00 +28°C° 0 mm 3 mps 733 mmHg 53%
14:00 +28°C° 0.1 mm 3 mps 732 mmHg 57%
15:00 +27°C° 0.1 mm 3 mps 731 mmHg 61%
16:00 +27°C° 0.1 mm 3 mps 731 mmHg 65%
17:00 +26°C° 0 mm 3 mps 731 mmHg 68%
18:00 +25°C° 0 mm 2 mps 731 mmHg 71%
19:00 +25°C° 0 mm 1 mps 731 mmHg 74%
20:00 +23°C° 0.2 mm 2 mps 731 mmHg 78%
21:00 +21°C° 0.2 mm 2 mps 731 mmHg 82%
22:00 +20°C° 0.2 mm 2 mps 731 mmHg 86%
23:00 +19°C° 0.3 mm 2 mps 732 mmHg 89%

Day after tomorrow, 1 August, Sunday

Time Temperature Precipitation Wind Pressure Humidity
00:00 +19°C° 0.3 mm 2 mps 732 mmHg 91%
01:00 +18°C° 0.3 mm 2 mps 732 mmHg 93%
02:00 +18°C° 0 mm 2 mps 732 mmHg 94%
03:00 +18°C° 0 mm 2 mps 733 mmHg 94%
04:00 +18°C° 0 mm 2 mps 733 mmHg 95%
05:00 +18°C° 0.1 mm 2 mps 733 mmHg 94%
06:00 +19°C° 0.1 mm 3 mps 733 mmHg 94%
07:00 +20°C° 0.1 mm 3 mps 734 mmHg 93%
08:00 +21°C° 0.4 mm 4 mps 734 mmHg 87%
09:00 +22°C° 0.4 mm 4 mps 734 mmHg 82%
10:00 +25°C° 0.4 mm 5 mps 734 mmHg 76%
11:00 +25°C° 0.2 mm 5 mps 734 mmHg 67%
12:00 +26°C° 0.2 mm 5 mps 735 mmHg 59%
13:00 +27°C° 0.2 mm 5 mps 735 mmHg 50%
14:00 +28°C° 0 mm 5 mps 735 mmHg 48%
15:00 +28°C° 0 mm 4 mps 735 mmHg 47%
16:00 +28°C° 0 mm 4 mps 735 mmHg 45%
17:00 +27°C° 0 mm 3 mps 735 mmHg 52%
18:00 +25°C° 0 mm 2 mps 735 mmHg 59%
19:00 +24°C° 0 mm 1 mps 735 mmHg 66%
20:00 +22°C° 0 mm 1 mps 735 mmHg 69%
21:00 +20°C° 0 mm 1 mps 736 mmHg 72%
22:00 +19°C° 0 mm 1 mps 736 mmHg 75%
23:00 +19°C° 0 mm 1 mps 736 mmHg 75%

2 August, Monday

Time Temperature Precipitation Wind Pressure Humidity
00:00 +18°C° 0 mm 1 mps 736 mmHg 75%
01:00 +18°C° 0 mm 1 mps 737 mmHg 75%
02:00 +18°C° 0 mm 1 mps 737 mmHg 76%
03:00 +16°C° 0 mm 2 mps 737 mmHg 78%
04:00 +16°C° 0 mm 2 mps 737 mmHg 79%
05:00 +17°C° 0 mm 2 mps 737 mmHg 76%
06:00 +19°C° 0 mm 2 mps 738 mmHg 72%
07:00 +20°C° 0 mm 2 mps 738 mmHg 68%
08:00 +23°C° 0 mm 2 mps 738 mmHg 62%
09:00 +25°C° 0 mm 3 mps 738 mmHg 55%
10:00 +26°C° 0 mm 4 mps 738 mmHg 49%
11:00 +27°C° 0 mm 4 mps 738 mmHg 47%
12:00 +28°C° 0 mm 4 mps 738 mmHg 45%
13:00 +29°C° 0 mm 4 mps 738 mmHg 43%
14:00 +29°C° 0 mm 3 mps 738 mmHg 43%
15:00 +29°C° 0 mm 3 mps 738 mmHg 43%
16:00 +30°C° 0 mm 2 mps 738 mmHg 42%
17:00 +28°C° 0 mm 2 mps 737 mmHg 49%
18:00 +27°C° 0 mm 2 mps 737 mmHg 56%
19:00 +25°C° 0 mm 2 mps 737 mmHg 63%
20:00 +24°C° 0 mm 2 mps 737 mmHg 64%
21:00 +23°C° 0 mm 2 mps 737 mmHg 66%
22:00 +20°C° 0 mm 2 mps 737 mmHg 68%
23:00 +20°C° 0 mm 2 mps 737 mmHg 68%

3 August, Tuesday

Time Temperature Precipitation Wind Pressure Humidity
00:00 +19°C° 0 mm 2 mps 737 mmHg 68%
01:00 +19°C° 0 mm 2 mps 737 mmHg 69%
02:00 +19°C° 0 mm 2 mps 737 mmHg 68%
03:00 +18°C° 0 mm 2 mps 737 mmHg 68%
04:00 +18°C° 0 mm 2 mps 737 mmHg 67%
05:00 +20°C° 0 mm 2 mps 737 mmHg 65%
06:00 +21°C° 0 mm 2 mps 738 mmHg 63%
07:00 +23°C° 0 mm 1 mps 738 mmHg 62%
08:00 +25°C° 0 mm 1 mps 738 mmHg 56%
09:00 +28°C° 0 mm 2 mps 738 mmHg 49%
10:00 +30°C° 0 mm 2 mps 738 mmHg 43%
11:00 +31°C° 0 mm 2 mps 738 mmHg 39%
12:00 +32°C° 0 mm 2 mps 738 mmHg 36%
13:00 +34°C° 0 mm 2 mps 738 mmHg 32%
14:00 +34°C° 0 mm 2 mps 737 mmHg 31%
15:00 +34°C° 0 mm 2 mps 737 mmHg 30%
16:00 +33°C° 0 mm 1 mps 737 mmHg 30%
17:00 +31°C° 0 mm 2 mps 737 mmHg 37%
18:00 +30°C° 0 mm 2 mps 737 mmHg 44%
19:00 +28°C° 0 mm 2 mps 736 mmHg 52%
20:00 +26°C° 0 mm 1 mps 736 mmHg 54%
21:00 +24°C° 0 mm 1 mps 737 mmHg 56%
22:00 +23°C° 0 mm 1 mps 737 mmHg 59%
23:00 +22°C° 0 mm 1 mps 737 mmHg 59%

4 August, Wednesday

Time Temperature Precipitation Wind Pressure Humidity
00:00 +22°C° 0 mm 1 mps 736 mmHg 58%
01:00 +22°C° 0 mm 1 mps 736 mmHg 58%
02:00 +21°C° 0 mm 1 mps 736 mmHg 58%
03:00 +20°C° 0 mm 2 mps 736 mmHg 59%
04:00 +20°C° 0 mm 2 mps 736 mmHg 59%
05:00 +21°C° 0 mm 2 mps 736 mmHg 59%
06:00 +23°C° 0 mm 2 mps 736 mmHg 59%
07:00 +24°C° 0 mm 2 mps 736 mmHg 60%
08:00 +27°C° 0 mm 2 mps 736 mmHg 53%
09:00 +29°C° 0 mm 2 mps 736 mmHg 46%
10:00 +31°C° 0 mm 2 mps 736 mmHg 40%
11:00 +32°C° 0 mm 2 mps 736 mmHg 36%
12:00 +34°C° 0 mm 1 mps 736 mmHg 33%
13:00 +35°C° 0 mm 1 mps 736 mmHg 29%
14:00 +35°C° 0 mm 1 mps 736 mmHg 29%
15:00 +36°C° 0 mm 1 mps 735 mmHg 28%
16:00 +37°C° 0 mm 2 mps 735 mmHg 28%
17:00 +35°C° 0 mm 2 mps 735 mmHg 32%
18:00 +31°C° 0 mm 2 mps 735 mmHg 35%
19:00 +28°C° 0 mm 2 mps 734 mmHg 38%
20:00 +28°C° 0 mm 2 mps 734 mmHg 37%
21:00 +27°C° 0 mm 2 mps 735 mmHg 37%
22:00 +26°C° 0 mm 2 mps 735 mmHg 36%
23:00 +25°C° 0 mm 2 mps 735 mmHg 40%
Show more